Location: Unspecified
(0.0000°N, 0.0000°E)
Time: 00:01:01
(UTC+00:00)

Courier 1B - Visible Passes

Search period start: 16 September 2019 00:00
Search period end: 26 September 2019 00:00
Orbit: 962 x 1209 km, 28.3° (Epoch: 15 September)

Date Brightness Start Highest point End Pass type
(mag) Time Alt. Az. Time Alt. Az. Time Alt. Az.
16 Sep 10.1 02:34:13 13° E 02:34:13 13° E 02:34:54 10° E visible
16 Sep 7.7 04:21:08 47° W 04:22:50 60° NNW 04:29:43 10° NE visible
17 Sep 8.3 03:31:07 48° NE 03:31:07 48° NE 03:35:54 10° ENE visible
17 Sep 8.9 05:18:05 10° WNW 05:23:24 24° NNW 05:28:56 10° NNE visible
18 Sep 10.0 02:41:05 14° ENE 02:41:05 14° ENE 02:41:57 10° ENE visible
18 Sep 8.4 04:27:59 30° NW 04:29:27 32° NNW 04:35:32 10° NE visible
19 Sep 8.7 03:37:54 33° NNE 03:37:54 33° NNE 03:42:01 10° NE visible
19 Sep 9.4 05:27:06 10° NW 05:30:21 14° NNW 05:33:40 10° N visible
20 Sep 10.0 02:47:47 13° NE 02:47:47 13° NE 02:48:24 10° NE visible
20 Sep 9.1 04:34:42 17° NW 04:36:15 18° NNW 04:40:44 10° NNE visible
21 Sep 9.2 03:44:32 20° N 03:44:32 20° N 03:47:35 10° NNE visible
23 Sep 9.6 03:51:01 12° N 03:51:01 12° N 03:52:19 10° N visible
